THORAD AGENA D DEB, 4157

Orbit data source: Space-Track

THORAD AGENA D DEB, 4157 is space debris in LEO originally from a launch on Tue, 30 Sep 1969 UTC launched from the Air Force Western Test Range (AFWTR). Debris objects in space refer to the collection of defunct objects orbiting the Earth. Examples of debris include non-operational satellites, rocket bodies, and fragments generated from explosions, collisions, or faulty payload assembly.

Loading next visibility...
Identifier
4157, 1969-082Z
Orbit
LEO
Country
Flag of USUS
Related business
Manufacturer
Unknown
Mission
Spacecraft
Bus & Motor
Unknown
Mass
Unknown
Launch date (UTC)
1969-09-30 (57 years ago)
Launch vehicle
Unknown
Launch site
Air Force Western Test Range (AFWTR)
Object type
Payload
Rocket body
Debris
Shape & HBR
Unknown shape, 0.2 m
Radar Cross Section
Small (<0.1 m²)

Expand to show TLE details & history
Last TLE update: 15 hours ago

TLE from 15 hours ago
0 THORAD AGENA D DEB
1 04157U 69082Z   26093.76817879  .00032943  00000-0  18512-2 0  9995
2 04157  70.0066 331.1330 0018780 181.2022 178.9103 15.13012724983197
Epoch: 2026-04-03T18:26Z
TLE epoch observation values (Epoch: 2026-04-03T18:26:10.647Z)
Latitude
-0.00002°
Longitude
-137.50894°
Altitude
542.426 km
Speed
7.584 km/s
True Right ascension
22h 04m 31s
True Declination
0° 00' 00"
Sunlit
Object was in daylight at epoch
Visualization orbit readout
Latitude
Unknown
Longitude
Unknown
Altitude
Unknown
Speed
Unknown
Apparent Right ascension
Unknown
Apparent Declination
Unknown
Sunlit
N/A
Visualization observer readout
Local Sidereal Time
15:15:48
Azimuth
Unknown
Elevation
Unknown
Doppler factor
Unknown
Orbital elements
Apogee altitude
537.916 km
Perigee altitude
511.988 km
Semi-major axis
6,903.089 km
Eccentricity
0.00188
Inclination
70.0066°
RAAN
331.133°
Arg. of periapsis
181.2022°
True anomaly
178.91438°
Mean anomaly
178.9103°
Eccentric anomaly
178.91234°
Mean motion
3.78423 °/min
Orbital period
95.13 mins
BSTAR
0.0018512
Loading maneuver chart data...
Computing Atmospheric mass density...

Documentation

Showing up to 5 results
|